www.pogodaiklimat.ru

Погода и климат >> Архив погоды >> Норвегия >> Fedje


ПОГОДА в Fedje

  • Прогноз погоды в Fedje
  • Монитор погоды в Fedje
  • Климат города

АРХИВ ПОГОДЫ в Fedje

Время (UTC), дата Ветер
(напр.,м/с)
 
Видим.   Явления Облачность Т
(С)
Тd
(С)
f
(%)
Тe
(С)
Тes
(С)
Комфортность P
(гПа)
Po
(гПа)
Тmin
(С)
Tmax
(С)
R
(мм)
R24
(мм)
S
(см)
01 15.10 ЮЗ 9
{13}
н/о н/о +12.4 +8.5 77 +9 +9 1014.7 1012.4
02 15.10 ЮЗ 8
{12}
н/о н/о +12.6 +8.5 76 +10 +10 1014.4 1012.1
03 15.10 Ю 8
{10}
н/о н/о +12.6 +8.9 78 +10 +10 1014.1 1011.8
04 15.10 ЮЗ 10
{15}
н/о н/о +11.2 +5.1 66 +7 +7 1013.9 1011.6
05 15.10 Ю 5
{11}
н/о н/о +9.5 +6.1 79 +6 +6 1013.0 1010.7
06 15.10 ЮВ 7
{15}
н/о н/о +9.3 +7.4 88 +5 +5 1011.7 1009.4 +9.1 +12.7
07 15.10 В 9
{12}
н/о н/о +9.5 +8.1 91 +5 +5 1009.6 1007.3
08 15.10 ЮВ 13
{16}
н/о н/о +11.1 +9.7 91 +6 +6 1008.5 1006.2
09 15.10 Ю 15
{19}
н/о н/о +12.6 +10.3 86 +8 +8 1007.5 1005.2
10 15.10 Ю 17
{21}
н/о н/о +13.4 +11.6 89 +9 +9 1006.4 1004.1
11 15.10 Ю 17
{22}
н/о н/о +13.3 +12.2 93 +9 +9 1005.9 1003.6
12 15.10 Ю 15
{22}
н/о н/о +13.2 +11.9 92 +9 +9 1006.0 1003.7
13 15.10 Ю 16
{21}
н/о н/о +13.2 +11.6 90 +9 +9 1005.4 1003.1
14 15.10 Ю 16
{21}
н/о н/о +13.2 +11.6 90 +9 +9 1004.6 1002.3
15 15.10 Ю 16
{21}
н/о н/о +13.1 +11.5 90 +9 +9 1004.1 1001.8
16 15.10 Ю 18
{23}
н/о н/о +13.4 +11.6 89 +9 +9 1002.9 1000.6
17 15.10 Ю 17
{24}
н/о н/о +13.2 +11.6 90 +9 +9 1002.8 1000.5
18 15.10 Ю 19
{24}
н/о н/о +13.5 +11.7 89 +9 +9 1002.6 1000.3 +9.2 +13.5
19 15.10 Ю 18
{24}
н/о н/о +13.5 +11.6 88 +9 +9 1002.7 1000.4
20 15.10 Ю 16
{24}
н/о н/о +13.5 +11.7 89 +10 +10 1002.8 1000.5
21 15.10 ЮЗ 18
{25}
н/о н/о +12.5 +9.3 81 +8 +8 1004.0 1001.7
22 15.10 ЮЗ 14
{21}
н/о н/о +12.2 +8.9 80 +8 +8 1005.6 1003.3
23 15.10 З 10
{19}
н/о н/о +10.9 +8.7 86 +7 +7 1007.8 1005.5
00 16.10 СЗ 12
{25}
н/о н/о +11.0 +7.1 77 +7 +7 1009.3 1007.0
01 16.10 З 11
{14}
н/о н/о +10.1 +7.4 83 +5 +5 1010.3 1008.0
02 16.10 СЗ 9
{13}
н/о н/о +10.0 +6.9 81 +6 +6 1011.2 1008.9
03 16.10 СЗ 5
{11}
н/о н/о +10.2 +7.1 81 +7 +7 1011.9 1009.6
04 16.10 СЗ 5
{10}
н/о н/о +10.2 +5.8 74 +7 +7 1012.5 1010.2
05 16.10 СЗ 6
{9}
н/о н/о +9.9 +6.4 79 +6 +6 1013.0 1010.7
06 16.10 СЗ 6
{14}
н/о н/о +10.5 +5.7 72 +7 +7 1013.2 1010.9 +9.2 +13.7
07 16.10 З 5
{7}
н/о н/о +10.7 +5.5 70 +8 +8 1013.9 1011.6
08 16.10 З 3
{7}
н/о н/о +10.5 +6.1 74 +9 +9 1014.9 1012.6
09 16.10 З 3
{5}
н/о н/о +10.9 +6.3 73 +9 +9 1015.5 1013.2
10 16.10 З 3 н/о н/о +10.9 +5.2 68 +9 +9 1015.7 1013.4
11 16.10 З 2
{4}
н/о н/о +11.1 +5.6 69 +10 +10 1016.0 1013.7
12 16.10 ЮЗ 2
{7}
н/о н/о +11.2 +5.5 68 +10 +10 1016.4 1014.1
13 16.10 ЮЗ 4
{5}
н/о н/о +11.3 +6.3 71 +9 +9 1016.9 1014.6
14 16.10 ЮЗ 4
{6}
н/о н/о +11.3 +6.0 70 +9 +9 1016.8 1014.5
15 16.10 Ю 4
{5}
н/о н/о +11.3 +6.5 72 +9 +9 1016.3 1014.0
16 16.10 Ю 3
{5}
н/о н/о +11.2 +6.8 74 +9 +9 1015.7 1013.4
17 16.10 ЮВ 6
{6}
н/о н/о +10.8 +7.5 80 +8 +8 1014.4 1012.1
18 16.10 ЮВ 6
{7}
н/о н/о +10.7 +7.8 82 +7 +7 1013.8 1011.5 +11.4
19 16.10 В 5
{7}
н/о н/о +10.5 +7.4 81 +8 +8 1013.4 1011.1
20 16.10 ЮВ 7
{9}
н/о н/о +10.4 +6.9 79 +7 +7 1012.7 1010.4
21 16.10 В 4
{6}
н/о н/о +9.4 +6.5 82 +7 +7 1012.2 1009.9
22 16.10 В 8
{10}
н/о н/о +9.1 +6.2 82 +5 +5 1009.7 1007.4
23 16.10 В 9
{12}
н/о н/о +9.4 +5.2 75 +5 +5 1006.9 1004.6
00 17.10 СВ 7
{12}
н/о н/о +9.0 +5.2 77 +5 +5 1004.7 1002.4
01 17.10 В 5
{9}
н/о н/о +8.8 +6.4 85 +5 +5 1003.5 1001.2
02 17.10 В 9
{11}
н/о н/о +9.5 +7.1 85 +5 +5 1001.3 999.0
03 17.10 ЮВ 9
{11}
н/о н/о +11.0 +8.9 87 +7 +7 1000.3 998.0
04 17.10 Ю 13
{17}
н/о н/о +13.1 +11.3 89 +9 +9 999.8 997.6
05 17.10 Ю 12
{17}
н/о н/о +13.2 +10.7 85 +10 +10 1000.0 997.8
06 17.10 Ю 13
{17}
н/о н/о +12.7 +10.4 86 +9 +9 999.7 997.4 +8.8 +13.2
07 17.10 Ю 11
{17}
н/о н/о +12.5 +10.4 87 +9 +9 999.3 997.0
08 17.10 Ю 14
{18}
н/о н/о +12.3 +10.7 90 +8 +8 999.0 996.7
09 17.10 Ю 12
{17}
н/о н/о +12.0 +10.7 92 +8 +8 999.2 996.9
10 17.10 Ю 12
{17}
н/о н/о +12.0 +10.9 93 +8 +8 999.0 996.7
11 17.10 Ю 12
{16}
н/о н/о +12.2 +10.8 91 +8 +8 999.0 996.7
12 17.10 Ю 10
{18}
н/о н/о +12.0 +10.6 91 +8 +8 998.9 996.6
13 17.10 Ю 8
{12}
н/о н/о +11.9 +10.5 91 +8 +8 998.8 996.5
14 17.10 Ю 6
{10}
н/о н/о +11.9 +10.6 92 +9 +9 998.8 996.5
15 17.10 ЮВ 3
{8}
н/о н/о +11.8 +10.6 92 +10 +10 998.8 996.5
16 17.10 В 4 н/о н/о +11.5 +10.4 93 +9 +9 999.2 996.9
17 17.10 СВ 5
{7}
н/о н/о +10.9 +9.8 93 +8 +8 1000.1 997.8
18 17.10
{12}
н/о н/о +11.0 +9.6 91 1001.3 999.0 +10.6 +12.9
19 17.10 С 10
{14}
н/о н/о +10.6 +7.8 83 +6 +6 1002.7 1000.4
20 17.10 С 11
{17}
н/о н/о +10.2 +6.0 75 +6 +6 1004.4 1002.1
21 17.10 С 11
{16}
н/о н/о +10.0 +5.0 71 +5 +5 1005.6 1003.3
22 17.10 С 15
{21}
н/о н/о +9.9 +3.9 66 +5 +5 1006.6 1004.3
23 17.10 С 14
{19}
н/о н/о +9.7 +3.5 65 +5 +5 1008.0 1005.7
00 18.10
{21}
н/о н/о +9.7 +2.8 62 1010.1 1007.8
01 18.10 С 9
{14}
н/о н/о +9.5 +2.6 62 +5 +5 1011.1 1008.8
02 18.10
{14}
н/о н/о +9.5 +3.1 64 1011.8 1009.5
03 18.10
{15}
н/о н/о +9.5 +3.7 67 1012.7 1010.4
04 18.10 С 9 н/о н/о +9.3 +4.1 70 +5 +5 1013.3 1011.0
05 18.10 С 7
{13}
н/о н/о +8.8 +4.1 72 +5 +5 1013.9 1011.6
06 18.10 С 7
{15}
н/о н/о +8.4 +4.2 75 +4 +4 1014.3 1012.0 +8.1 +11.1
07 18.10 С 6
{9}
н/о н/о +8.6 +3.7 71 +5 +5 1015.0 1012.7
08 18.10 С 7
{9}
н/о н/о +9.4 +3.4 66 +6 +6 1015.4 1013.1
09 18.10 С 8
{12}
н/о н/о +9.9 +2.8 61 +6 +6 1015.4 1013.1
10 18.10 С 7
{11}
н/о н/о +10.1 +3.4 63 +7 +7 1015.8 1013.5
11 18.10 С 7
{11}
н/о н/о +10.2 +3.5 63 +7 +7 1016.1 1013.8
12 18.10 С 8
{12}
н/о н/о +10.4 +3.5 62 +7 +7 1015.9 1013.6
00 21.10 В 6 н/о н/о +12.9 +6.7 66 +11 +11 1009.0 1006.7
01 21.10 В 7
{10}
н/о н/о +13.1 +6.2 63 +11 +11 1009.1 1006.8
02 21.10 ЮВ 7
{10}
н/о н/о +13.2 +7.2 67 +11 +11 1009.2 1006.9
03 21.10 ЮВ 6
{8}
н/о н/о +13.1 +7.1 67 +11 +11 1009.2 1006.9
04 21.10 В 7
{9}
н/о н/о +13.3 +6.0 61 +11 +11 1008.8 1006.5
05 21.10 В 6
{10}
н/о н/о +12.7 +5.9 63 +10 +10 1008.5 1006.2
06 21.10 В 5 н/о н/о +12.5 +6.1 65 +10 +10 1008.5 1006.2
07 21.10 ЮВ 6
{8}
н/о н/о +12.5 +6.1 65 +10 +10 1008.3 1006.0
08 21.10 В 7
{9}
н/о н/о +13.3 +5.7 60 +11 +11 1008.2 1005.9
09 21.10 ЮВ 8
{10}
н/о н/о +14.1 +5.5 56 +12 +12 1008.2 1005.9
10 21.10 ЮВ 9
{12}
н/о н/о +14.3 +6.2 58 +12 +12 1008.3 1006.0
11 21.10 ЮВ 11
{12}
н/о н/о +14.3 +5.4 55 +12 +12 1008.0 1005.7
12 21.10 ЮВ 9
{14}
н/о н/о +14.1 +6.0 58 +12 +12 1007.9 1005.6
13 21.10 В 11
{15}
н/о н/о +14.1 +4.7 53 +11 +11 1007.5 1005.2
14 21.10 В 11
{16}
н/о н/о +13.7 +4.8 55 +11 +11 1007.5 1005.2
15 21.10 В 10
{14}
н/о н/о +13.5 +4.1 53 +11 +11 1007.0 1004.7
16 21.10 ЮВ 12
{14}
н/о н/о +13.3 +3.7 52 +10 +10 1006.9 1004.6
17 21.10 В 10
{13}
н/о н/о +13.1 +3.5 52 +10 +10 1007.0 1004.7
18 21.10 В 11
{16}
н/о н/о +13.0 +3.9 54 +10 +10 1007.2 1004.9 +12.3 +14.4
19 21.10 В 11
{14}
н/о н/о +13.0 +3.7 53 +10 +10 1006.7 1004.4
20 21.10 ЮВ 11
{15}
н/о н/о +13.1 +3.2 51 +10 +10 1006.6 1004.3
21 21.10 В 10
{14}
н/о н/о +13.0 +3.1 51 +10 +10 1006.8 1004.5
22 21.10 В 13
{16}
н/о н/о +13.3 +3.1 50 +10 +10 1006.3 1004.0
23 21.10 В 10
{16}
н/о н/о +13.0 +3.4 52 +10 +10 1006.4 1004.1
00 22.10 В 9
{16}
н/о н/о +12.9 +3.0 51 +10 +10 1006.2 1003.9

 

Местоположение метеостанции Fedje (Норвегия): широта 60.78 долгота 4.72 высота над уровнем моря 19 м.

В архиве по умолчанию представлена погода в Fedje за последнюю неделю. Архивные данные за месяц целиком и за предыдущие месяцы, начиная с января 2011 года, Вы можете получить, выбрав интересующий диапазон дат из раскрывающегося списка и нажав кнопку "Ввод!".

Внимание! Время в таблицах - всемирное. Для получения местного времени необходимо прибавить поправку, которая в Fedje равна 1 ч.

Смотрите также архив погоды в соседних городах и на ближайших метеорологических станциях:

Погода в Takle (Норвегия) (45 км)
Погода в Bergen (Норвегия) (56 км)
Погода в Furuneset (Норвегия) (59 км)
Погода в Fossmark (Норвегия) (62 км)
Погода в Modalen III (Норвегия) (68 км)
Погода в Evanger (Норвегия) (77 км)
Погода в Kvamskogen (Норвегия) (82 км)
Погода в Bulken (Норвегия) (83 км)
Погода в Ytteroyane Fyr (Норвегия) (88 км)
Погода в Forde Lifthavn (Норвегия) (88 км)

Пояснения к столбцам:

Ветер - указаны скорость ветра в м/с - средняя за 10 мин, порывы в срок и между сроками (в фигурных скобках) и направление, откуда дует ветер: С - северный, СВ - северо-восточный, В - восточный, ЮВ - юго-восточный, Ю - южный, ЮЗ - юго-западный, З - западный, СЗ - северо-западный.
Видимость - горизонтальная дальность видимости в метрах или километрах. При видимости от 1 до 10 км при отсутствии осадков обычно наблюдается дымка, при ухудшении видимости до 1 км и менее - туман. В сухую погоду видимость может ухудшаться дымом, пылью или мглою.
Явления - указаны атмосферные явления, наблюдавшиеся в срок или в последний час перед сроком; фигурными скобками обозначены явления, наблюдавшиеся между сроками (за 1-3 часа до срока); квадратными скобками обозначены град или гололедные отложения с указанием их диаметра в мм.
Облачность - указаны через наклонную черту общая и нижняя облачность в баллах и высота нижней границы облаков в метрах; квадратными скобками обозначены формы облаков: Ci - перистые, Cs - перисто-слоистые, Cc - перисто-кучевые, Ac - высококучевые, As - высокослоистые, Sc - слоисто-кучевые, Ns - слоисто-дождевые, Cu - кучевые, Cb - кучево-дождевые. Подробнее классификацию облаков см. в Атласе облаков (PDF).
T - Температура воздуха - температура, измеренная на высоте 2 м над землей.
Td - Температура точки росы - температура, при понижении до которой содержащийся в воздухе водяной пар достигнет насыщения.
f - Относительная влажность воздуха - влажноcть воздуха, измеренная на высоте 2 м над землей.
Te - Эффективная температура - температура, которую ощущает одетый по сезону человек в тени. Характеристика душности погоды. При расчете учитывается влияние влажности воздуха и скорости ветра на теплоощущения человека.
Tes - Эффективная температура на солнце - температура, которую ощущает человек, с поправкой на солнечный нагрев. Характеристика знойности погоды. Зависит от высоты солнца над горизонтом, облачности и скорости ветра. Ночью, в пасмурную погоду, а также при ветре 12 м/с и более поправка равна нулю.
P - Атмосферное давление - приведенное к уровню моря атмосферное давление.
Po - Атмосферное давление - измеренное на уровне метеостанции атмосферное давление.
Tmin - Минимальная температура - минимум температуры воздуха на высоте 2 м над землей.
Tmax - Максимальная температура - максимум температуры воздуха на высоте 2 м над землей.
R - Количество осадков - Количество выпавших осадков за период времени, мм. При наведении курсора мыши на число - период времени, за который выпало указанное количество осадков.
R24 - Количество осадков - Количество выпавших осадков за 24 часа, мм.
S - Снежный покров - Высота снежного покрова, см. При наведении курсора мыши на число - состояние снежного покрова и степень покрытия местности в баллах.